Tracking 30970 objects as of 3-Jul-2025
HD Live streaming from Space Station
objects crossing your sky now

DELTA 1 R/B

Track DELTA 1 R/B now!
10-day predictions


NORAD ID: 6921
Int'l Code: 1973-086B
Perigee: 1,514.6 km
Apogee: 1,537.9 km
Inclination: 102.4 °
Period: 116.4 minutes
Semi major axis: 7897 km
RCS: 3.8464 m2 (large)
Launch date: November 6, 1973
Source: United States (US)
Launch site: AIR FORCE WESTERN TEST RANGE (AFWTR)

Note: This is a ROCKET BODY
Your satellite tracking list
AYAME 2 DEB
Track 1 satellite(s)




NASA's NSSDC Master Catalog

Two Line Element Set (TLE):
1 06921U 73086B   25183.66719761 -.00000041  00000-0  38147-4 0  9997
2 06921 102.3727 205.5347 0014755 184.0940 176.0002 12.37058583347110
Source of the keplerian elements: AFSPC